Weather Roundup
Issued by NWS Chicago, IL

Home | Current Version | Previous Version | Text Only | Print | Product List | Glossary Off
Versions: 1 2 3 4 5 6 7 8 9 10 11 12 13 14 15 16 17 18 19 20 21 22 23 24 25 26 27 28 29 30 31 32 33 34 35 36 37 38 39 40 41 42 43 44 45 46 47 48 49 50

000
NZUS59 KLOT 041921
HRRLOT

CHICAGO AREA WEATHER ROUNDUP
NATIONAL WEATHER SERVICE CHICAGO/ROMEOVILLE IL
200 PM CDT MON MAY 04 2015

NOTE: "FAIR" INDICATES FEW OR NO CLOUDS BELOW 12,000 FEET WITH NO
SIGNIFICANT WEATHER AND/OR OBSTRUCTIONS TO VISIBILITY.

* THESE STATIONS ARE NOT UNDER NWS QUALITY CONTROL. THEY ALSO MAY NOT
  REPORT WEATHER SUCH AS PRECIPITATION OR FOG.

ILZ005-006-012>014-019>023-042000-
NORTHEAST ILLINOIS

CITY           SKY/WX    TMP DP  RH WIND       PRES   REMARKS
OHARE          PTSUNNY   71  57  61 SW3       30.11R
MIDWAY         CLOUDY    73  59  61 SW5       30.12R
AURORA         CLOUDY    68  59  73 W8        30.13R
LANSING*       CLOUDY    72  58  60 W5        30.13R
JOLIET*        PTSUNNY   73  60  64 CALM      30.13R
WAUKEGAN       PTSUNNY   64  56  75 NE8       30.12R
DUPAGE AIRPORT CLOUDY    70  58  65 SW5       30.12R
WHEELING       PTSUNNY   74  55  51 CALM      30.12R
KANKAKEE*      CLOUDY    69  62  78 CALM      30.14S
MORRIS*        PTSUNNY   74  60  61 NW3       30.11R
LEWIS AIRPORT* CLOUDY    71  58  63 N8        30.13R
NORTHERLY IS     N/A     60  55  83 N2          N/A
$$

WIZ051-052-058>065-066-070>072-042000-
SOUTHEAST WISCONSIN

CITY           SKY/WX    TMP DP  RH WIND       PRES   REMARKS
MILWAUKEE      PTSUNNY   64  47  53 NE15      30.14R
KENOSHA*       PTSUNNY   69  59  70 E13       30.13R
RACINE*        MOSUNNY   67  54  63 NE13      30.15R
BURLINGTON     MOSUNNY   71  56  58 NW5       30.12R
WAUKESHA       CLOUDY    66  54  63 N7        30.14R
WEST BEND      CLOUDY    68  39  34 NE12      30.14R
$$

INZ001>003-010>013-019-020-042000-
NORTHWEST INDIANA

CITY           SKY/WX    TMP DP  RH WIND       PRES   REMARKS
GARY*          CLOUDY    73 N/A N/A W8        30.12R
MICHIGAN CITY* NOT AVBL
RENSSELAER*    NOT AVBL
VALPARAISO     CLOUDY    70  60  70 SW9       30.14R
$$

LMZ740>746-042000-
SOUTHERN LAKE MICHIGAN

STATION/POSITION TIME  SKY/WX   TEMP WIND        PRES    VSBY
                                AIR  DIR/SP/G
                 (UTC)          (F)  (DEG/KT/KT) (MB)    (MI)
HARRISON CRIB    1900            59   80/ 14/ 15   N/A
BURNHAM HARBOR   1900            59   30/  6/  8   N/A
CALUMET HARBOR   1800            62   80/  5/  7   N/A
BURNS HARBOR     1800            64  250/  2/  5 1020.3S
MICHIGAN CITY    1900            55  360/  9/ 12   N/A
$$

ABBREVIATIONS USED IN REMARKS
   TC - TEMPERATURE IN CELSIUS
  WCI - WIND CHILL INDEX
   HX - HEAT INDEX
  VSB - VISIBILITY
$$



USA.gov is the U.S. government's official web portal to all federal, state and local government web resources and services.